Lincoln, IL

7:32 AM CST on February 24, 2017 (GMT -0600)
Lincoln

Weather History for KAAA - February, 2013

Change the Weather History Date:

Friday, February 15, 2013

  Actual Average (KSPI) Record (KSPI)
Temperature  
Mean Temperature 30 °F -  
Max Temperature 37 °F 37 °F 70 °F (1954)
Min Temperature 23 °F 22 °F -10 °F (1905)
Degree Days  
Heating Degree Days 35    
Moisture  
Dew Point 20 °F    
Average Humidity 65    
Maximum Humidity 89    
Minimum Humidity 36    
Precipitation  
Precipitation 0.00 in - - ()
Sea Level Pressure  
Sea Level Pressure 30.17 in    
Wind  
Wind Speed 7 mph (NW)    
Max Wind Speed 13 mph    
Max Gust Speed 21 mph    
Visibility 10 miles    
Events      
Averages and records for this station are not official NWS values.
T = Trace of Precipitation, MM = Missing Value Source: NWS Daily Summary

Daily Weather History Graph

Daily Weather History Graph

Search for Another Location

Airport or City:

Trip Planner

Search our weather history database for the weather conditions in past years. The results will help you decide how hot, cold, wet, or windy it might be!

Date:

Astronomy

Feb. 15, 2013 Rise Set
Actual Time 6:50 AM CST 5:33 PM CST
Civil Twilight 6:22 AM CST 6:01 PM CST
Nautical Twilight 5:50 AM CST 6:32 PM CST
Astronomical Twilight 5:19 AM CST 7:04 PM CST
Moon 9:25 AM CST (2/15) 11:34 PM CST (2/15)
Length of Visible Light 11h 38m
Length of Day
10h 43m
Waxing Crescent, 30% of the Moon is Illuminated
Feb 15
Waxing Crescent
Feb 17
First Quarter
Feb 25
Full
Mar 4
Last Quarter
Mar 11
New

Hourly Weather History & Observations

Time (CST) Temp. Windchill Dew Point Humidity Pressure Visibility Wind Dir Wind Speed Gust Speed Precip Events Conditions
12:15 AM 34.3 °F 31.4 °F 29.7 °F 83% 30.02 in 10.0 mi WNW 3.5 mph - N/A   Clear
12:35 AM 34.5 °F 30.4 °F 29.5 °F 82% 30.03 in 10.0 mi West 4.6 mph - N/A   Clear
12:55 AM 34.7 °F 28.8 °F 29.8 °F 82% 30.04 in 10.0 mi WNW 6.9 mph - N/A   Scattered Clouds
1:15 AM 34.7 °F 30.6 °F 30.2 °F 84% 30.04 in 10.0 mi WNW 4.6 mph - N/A   Mostly Cloudy
1:35 AM 34.7 °F 30.6 °F 30.2 °F 84% 30.05 in 10.0 mi West 4.6 mph - N/A   Overcast
1:55 AM 34.0 °F 31.0 °F 30.2 °F 86% 30.06 in 10.0 mi West 3.5 mph - N/A   Overcast
2:15 AM 33.8 °F 30.8 °F 30.2 °F 87% 30.06 in 10.0 mi West 3.5 mph - N/A   Overcast
2:35 AM 34.0 °F 31.0 °F 30.9 °F 89% 30.06 in 10.0 mi West 3.5 mph - N/A   Overcast
2:55 AM 34.2 °F 27.5 °F 30.2 °F 85% 30.07 in 10.0 mi WNW 8.1 mph - N/A   Overcast
3:15 AM 33.6 °F 26.2 °F 28.2 °F 81% 30.07 in 10.0 mi NW 9.2 mph 16.1 mph N/A   Overcast
3:35 AM 32.2 °F 25.0 °F 27.5 °F 83% 30.08 in 10.0 mi NW 8.1 mph 16.1 mph N/A   Scattered Clouds
3:55 AM 32.0 °F 24.8 °F 27.1 °F 82% 30.09 in 10.0 mi NW 8.1 mph 20.7 mph N/A   Clear
4:15 AM 31.5 °F 23.5 °F 27.1 °F 84% 30.09 in 10.0 mi NW 9.2 mph - N/A   Clear
4:35 AM 31.1 °F 23.7 °F 26.6 °F 83% 30.10 in 10.0 mi NW 8.1 mph - N/A   Scattered Clouds
4:55 AM 31.5 °F 24.9 °F 26.6 °F 82% 30.11 in 10.0 mi NW 6.9 mph - N/A   Mostly Cloudy
5:15 AM 31.5 °F 25.8 °F 26.6 °F 82% 30.11 in 10.0 mi NW 5.8 mph - N/A   Overcast
5:35 AM 31.1 °F 25.4 °F 27.0 °F 85% 30.11 in 10.0 mi NW 5.8 mph - N/A   Overcast
5:55 AM 32.0 °F 23.6 °F 24.8 °F 75% 30.12 in 10.0 mi WNW 10.4 mph - N/A   Overcast
6:15 AM 30.0 °F 21.1 °F 23.0 °F 75% 30.13 in 10.0 mi WNW 10.4 mph - N/A   Overcast
6:35 AM 28.4 °F 19.1 °F 21.4 °F 75% 30.14 in 10.0 mi WNW 10.4 mph 17.3 mph N/A   Mostly Cloudy
6:55 AM 27.5 °F 20.2 °F 21.0 °F 77% 30.15 in 10.0 mi WNW 6.9 mph - N/A   Scattered Clouds
7:15 AM 27.1 °F 18.9 °F 20.7 °F 77% 30.17 in 10.0 mi WNW 8.1 mph - N/A   Clear
7:35 AM 26.6 °F 17.5 °F 21.2 °F 80% 30.17 in 10.0 mi WNW 9.2 mph - N/A   Clear
7:55 AM 27.5 °F 16.8 °F 19.4 °F 72% 30.19 in 10.0 mi NW 12.7 mph 19.6 mph N/A   Clear
8:15 AM 27.9 °F 18.4 °F 19.6 °F 71% 30.19 in 10.0 mi WNW 10.4 mph 17.3 mph N/A   Clear
8:35 AM 28.4 °F 19.1 °F 19.2 °F 69% 30.20 in 10.0 mi NW 10.4 mph 18.4 mph N/A   Clear
8:55 AM 28.9 °F 21.1 °F 19.6 °F 68% 30.21 in 10.0 mi NW 8.1 mph 16.1 mph N/A   Clear
9:15 AM 29.7 °F 21.3 °F 19.9 °F 67% 30.21 in 10.0 mi NW 9.2 mph - N/A   Clear
9:35 AM 30.2 °F 21.9 °F 20.3 °F 67% 30.22 in 10.0 mi NW 9.2 mph - N/A   Clear
9:55 AM 30.9 °F 22.8 °F 20.3 °F 65% 30.22 in 10.0 mi NNW 9.2 mph 16.1 mph N/A   Clear
10:15 AM 32.0 °F 24.8 °F 21.0 °F 64% 30.22 in 10.0 mi NW 8.1 mph 17.3 mph N/A   Scattered Clouds
10:35 AM 32.0 °F 23.6 °F 20.7 °F 63% 30.23 in 10.0 mi NW 10.4 mph 16.1 mph N/A   Scattered Clouds
10:55 AM 32.0 °F 24.8 °F 19.4 °F 60% 30.23 in 10.0 mi NW 8.1 mph 16.1 mph N/A   Scattered Clouds
11:15 AM 32.4 °F 23.5 °F 17.6 °F 55% 30.23 in 10.0 mi NW 11.5 mph - N/A   Clear
11:55 AM 33.8 °F 26.4 °F 15.6 °F 47% 30.22 in 10.0 mi NNW 9.2 mph - N/A   Clear
12:15 PM 34.5 °F 27.9 °F 15.8 °F 46% 30.22 in 10.0 mi NNW 8.1 mph - N/A   Clear
12:35 PM 34.9 °F 28.3 °F 15.6 °F 45% 30.22 in 10.0 mi NNW 8.1 mph 16.1 mph N/A   Clear
12:55 PM 35.1 °F 30.1 °F 15.4 °F 45% 30.21 in 10.0 mi NW 5.8 mph - N/A   Clear
1:15 PM 36.0 °F 31.1 °F 15.4 °F 43% 30.20 in 10.0 mi NNW 5.8 mph - N/A   Clear
1:35 PM 36.9 °F 30.7 °F 14.7 °F 40% 30.20 in 10.0 mi NW 8.1 mph - N/A   Clear
1:55 PM 36.7 °F 30.5 °F 14.2 °F 40% 30.20 in 10.0 mi NW 8.1 mph - N/A   Scattered Clouds
2:15 PM 36.7 °F 30.5 °F 12.9 °F 38% 30.20 in 10.0 mi NNW 8.1 mph - N/A   Clear
2:35 PM 37.2 °F 31.9 °F 12.6 °F 36% 30.20 in 10.0 mi NW 6.9 mph - N/A   Clear
2:55 PM 36.9 °F 30.7 °F 12.7 °F 37% 30.20 in 10.0 mi NW 8.1 mph - N/A   Clear
3:15 PM 36.3 °F 32.5 °F 12.6 °F 38% 30.20 in 10.0 mi NW 4.6 mph 9.2 mph N/A   Clear
3:35 PM 36.5 °F 31.8 °F 11.7 °F 36% 30.20 in 10.0 mi West 5.8 mph - N/A   Scattered Clouds
3:55 PM 35.4 °F 27.8 °F 11.5 °F 37% 30.21 in 10.0 mi NW 10.4 mph - N/A   Clear
4:15 PM 36.0 °F 30.3 °F 12.7 °F 38% 30.21 in 10.0 mi NW 6.9 mph - N/A   Clear
4:35 PM 35.4 °F 29.7 °F 12.4 °F 39% 30.21 in 10.0 mi NW 6.9 mph - N/A   Scattered Clouds
4:55 PM 34.3 °F 27.7 °F 11.3 °F 39% 30.21 in 10.0 mi WNW 8.1 mph - N/A   Clear
5:15 PM 33.6 °F 26.2 °F 12.6 °F 42% 30.22 in 10.0 mi WNW 9.2 mph - N/A   Clear
5:35 PM 32.5 °F 26.2 °F 14.7 °F 48% 30.22 in 10.0 mi WNW 6.9 mph - N/A   Clear
5:55 PM 32.0 °F 27.5 °F 16.5 °F 53% 30.22 in 10.0 mi WNW 4.6 mph - N/A   Scattered Clouds
6:15 PM 31.3 °F - 18.0 °F 58% 30.22 in 10.0 mi Calm Calm - N/A   Scattered Clouds
6:35 PM 31.1 °F - 18.0 °F 58% 30.22 in 10.0 mi Calm Calm - N/A   Mostly Cloudy
6:55 PM 30.4 °F 26.9 °F 18.5 °F 61% 30.22 in 10.0 mi NW 3.5 mph - N/A   Scattered Clouds
7:15 PM 30.2 °F 23.4 °F 18.1 °F 61% 30.22 in 10.0 mi NW 6.9 mph - N/A   Scattered Clouds
7:35 PM 29.8 °F 24.9 °F 18.3 °F 62% 30.22 in 10.0 mi NW 4.6 mph - N/A   Clear
7:55 PM 29.3 °F 22.3 °F 16.7 °F 59% 30.22 in 10.0 mi NW 6.9 mph - N/A   Clear
8:15 PM 28.4 °F 21.2 °F 17.2 °F 63% 30.22 in 10.0 mi NW 6.9 mph - N/A   Clear
8:35 PM 28.2 °F 19.5 °F 16.5 °F 62% 30.22 in 10.0 mi NW 9.2 mph 16.1 mph N/A   Clear
8:55 PM 27.5 °F 22.2 °F 17.1 °F 65% 30.23 in 10.0 mi NW 4.6 mph - N/A   Clear
9:15 PM 27.0 °F 21.6 °F 17.6 °F 68% 30.23 in 10.0 mi NW 4.6 mph - N/A   Clear
9:35 PM 26.2 °F 17.8 °F 17.2 °F 69% 30.24 in 10.0 mi NNW 8.1 mph - N/A   Clear
9:55 PM 25.7 °F 20.1 °F 17.2 °F 70% 30.23 in 10.0 mi NW 4.6 mph - N/A   Clear
10:15 PM 25.2 °F 18.3 °F 17.4 °F 72% 30.23 in 10.0 mi WNW 5.8 mph - N/A   Clear
10:35 PM 24.8 °F 19.1 °F 16.7 °F 71% 30.23 in 10.0 mi WNW 4.6 mph - N/A   Clear
10:55 PM 24.4 °F 18.6 °F 16.7 °F 72% 30.23 in 10.0 mi NW 4.6 mph - N/A   Clear
11:15 PM 24.3 °F 17.3 °F 16.3 °F 72% 30.22 in 10.0 mi WNW 5.8 mph - N/A   Clear
11:35 PM 23.9 °F 18.0 °F 16.5 °F 73% 30.22 in 10.0 mi NW 4.6 mph - N/A   Clear
11:55 PM 23.9 °F 18.0 °F 16.7 °F 74% 30.21 in 10.0 mi NW 4.6 mph - N/A   Clear